Theta_e
353 353 353 352 353 353 353 353 353 354 354 354 354 353 353 352 353 353 354 355 357 356 356 355 355 355 355 353 349 346 347 343 338 337 337 339 340 340 338 337 337 336
353 353 353 353 353 352 353 353 353 353 353 353 353 353 352 352 353 353 354 355 356 356 356 355 355 355 355 354 351 347 347 346 341 337 337 339 340 340 338 337 337 337
354 353 353 353 353 353 353 353 353 353 353 353 353 353 352 352 352 354 354 356 357 356 356 355 355 355 355 355 352 349 347 347 343 338 337 340 341 340 338 337 337 337
353 353 354 353 353 353 353 353 353 353 352 352 352 352 352 352 352 353 355 356 357 357 356 355 355 355 355 354 353 350 348 348 345 339 337 340 341 340 339 337 337 338
353 353 353 353 353 353 353 353 353 352 352 352 352 352 352 352 353 354 355 357 357 357 356 355 356 355 355 354 352 350 348 348 346 340 337 339 341 340 340 338 338 338
353 353 353 353 353 353 353 352 352 352 352 352 352 351 352 352 353 354 355 356 357 357 356 355 356 355 355 355 352 350 349 347 346 341 337 338 340 340 340 339 339 339
353 353 353 353 353 353 353 353 353 352 352 352 352 351 351 352 352 353 354 356 356 356 356 355 356 355 355 354 353 351 349 347 346 343 338 337 340 340 340 340 339 340
353 353 353 353 353 353 353 353 353 353 352 352 352 351 351 351 351 353 354 355 355 355 355 355 355 355 355 354 353 351 349 347 346 344 340 337 338 340 341 340 339 339
353 353 353 354 353 353 353 353 353 353 352 353 352 352 352 351 351 352 353 354 354 354 355 355 355 355 354 354 353 352 350 347 346 344 342 338 337 338 340 340 339 339
353 354 353 354 354 353 354 353 353 353 353 353 353 352 352 352 352 352 353 354 354 354 354 354 354 354 354 353 353 352 351 348 346 345 343 341 338 336 339 340 340 340
353 354 353 354 354 354 354 353 353 354 353 353 353 353 353 353 353 353 353 353 353 353 353 353 353 353 353 353 352 352 351 348 347 346 345 344 341 338 337 339 340 340
353 353 353 354 354 354 354 354 354 354 354 353 354 353 353 353 353 353 353 353 353 353 353 353 353 353 352 352 352 351 350 348 347 346 345 344 342 340 338 338 339 340
353 353 354 354 354 354 354 354 354 354 354 354 354 354 354 354 353 353 353 353 353 353 353 353 353 353 352 352 351 350 350 348 346 346 345 344 343 341 339 338 337 339
352 353 353 354 354 354 354 354 354 354 354 354 354 354 354 354 354 353 353 353 353 353 353 353 352 352 352 351 350 349 349 348 347 346 345 344 343 342 341 339 338 338
353 353 353 353 354 354 354 354 354 354 354 354 354 354 354 354 354 354 353 353 353 353 353 352 352 352 352 351 350 349 349 348 347 346 345 344 343 343 342 340 339 339
353 354 354 354 353 354 354 354 355 355 355 355 355 354 354 354 354 354 354 354 353 353 353 352 352 352 352 351 350 349 349 348 347 346 346 345 344 343 342 341 340 340
354 354 354 354 354 354 354 354 355 355 355 355 355 355 355 355 355 355 354 354 354 353 352 352 352 352 352 351 350 350 349 349 347 346 346 346 345 344 343 341 341 341
354 355 355 355 355 355 355 355 355 355 355 356 355 355 355 355 355 355 355 354 354 353 353 352 352 352 352 351 351 350 350 349 348 346 346 346 345 344 343 342 342 341
354 355 356 356 356 356 355 355 356 355 356 355 356 356 356 355 355 355 355 355 354 354 354 353 352 352 352 351 351 351 350 349 348 346 346 346 346 345 344 343 342 341
355 355 356 356 356 356 356 356 356 356 356 356 356 356 356 356 356 356 355 355 355 355 354 354 353 352 352 352 351 351 351 350 348 346 346 347 347 346 345 343 342 341
355 355 356 356 356 356 357 357 357 357 357 356 356 356 356 356 356 356 356 355 355 355 354 354 353 353 352 352 351 351 351 350 348 346 346 347 347 346 345 343 341 341
356 356 356 356 357 357 357 357 357 357 357 357 357 356 357 356 356 356 356 356 356 356 355 355 354 353 352 352 351 351 350 350 348 346 346 346 346 345 344 342 342 342
356 356 356 356 357 357 357 357 357 358 357 357 357 357 357 357 356 357 356 356 356 356 355 355 354 353 353 352 352 351 350 349 348 346 345 345 345 345 344 342 342 342
356 356 357 357 357 357 357 358 357 358 358 358 357 357 357 357 357 357 357 356 356 356 356 355 355 354 353 352 352 351 350 350 349 347 345 344 344 344 343 342 341 341
357 357 358 358 358 358 358 358 358 358 358 358 358 357 357 357 357 357 356 356 356 356 356 356 355 354 353 353 352 351 351 350 349 348 346 344 343 342 341 341 341 341
357 358 358 358 358 358 358 358 358 358 358 358 358 358 358 357 357 357 356 356 356 356 355 355 355 354 353 353 353 352 351 350 349 348 348 347 346 343 340 340 341 340
Wind_Speed
41 39 39 38 38 36 35 35 34 34 34 34 34 35 35 34 33 32 31 30 28 28 27 25 25 25 24 23 23 22 21 19 20 20 20 20 19 16 15 16 16 15
41 40 38 37 37 37 36 37 37 36 36 36 36 36 35 34 33 33 32 31 30 29 28 27 26 26 25 25 24 24 23 21 20 21 21 21 20 18 16 16 17 16
42 40 39 38 38 38 38 38 37 37 36 36 36 35 34 34 33 33 33 32 31 31 30 29 27 26 26 26 26 25 25 24 22 21 21 21 20 18 17 16 17 17
42 42 41 41 40 40 39 37 37 37 36 36 36 35 35 34 34 33 33 32 32 32 31 31 29 28 27 27 27 27 26 25 23 22 22 22 21 19 17 16 17 18
44 43 42 42 41 40 38 37 37 37 37 36 36 35 35 34 34 34 33 33 33 33 33 32 31 30 29 28 28 28 28 27 25 23 24 24 23 20 18 17 18 18
42 42 42 42 41 40 39 39 39 39 38 37 36 35 35 35 34 35 34 34 33 33 33 33 32 31 30 30 29 29 29 28 26 25 26 26 24 22 20 19 18 18
40 41 42 42 41 41 40 40 40 39 38 37 36 36 35 35 36 36 35 34 34 34 34 34 34 33 32 31 31 31 30 29 28 27 27 27 26 24 22 21 20 20
40 40 41 41 41 41 40 40 39 38 37 36 36 36 36 36 37 37 36 35 34 34 34 35 35 35 34 33 32 32 31 30 30 29 28 28 27 26 24 23 22 22
40 40 40 41 41 41 40 40 39 37 36 36 36 36 36 37 38 38 37 36 35 35 35 35 35 36 35 35 34 33 32 31 31 31 30 29 29 28 26 25 24 24
39 39 40 40 41 40 40 39 39 37 36 36 36 36 36 37 38 38 38 37 36 35 35 35 36 36 36 36 36 35 34 32 32 32 31 30 30 30 28 27 26 25
40 40 39 40 40 39 39 39 39 37 36 36 36 36 37 37 38 38 39 38 37 36 36 37 37 37 37 37 37 36 35 33 32 33 33 32 31 30 30 29 28 28
40 41 41 40 40 39 39 39 39 38 37 37 37 37 38 38 38 39 39 40 39 38 37 38 38 38 38 38 37 37 35 33 32 32 33 32 32 31 30 30 30 29
42 42 41 41 41 40 40 40 40 40 39 38 38 38 39 39 39 39 40 41 40 39 39 39 39 39 40 39 37 36 35 33 32 32 32 32 32 31 30 30 30 30
44 43 42 42 41 41 42 42 41 41 40 39 39 39 40 41 40 40 40 40 40 39 39 39 40 40 41 40 37 36 35 34 33 32 32 31 31 31 31 31 30 30
42 41 42 42 41 42 42 42 41 41 40 40 40 40 41 41 40 40 40 40 39 39 39 39 40 42 42 41 38 36 36 35 34 33 32 32 31 31 31 31 30 30
40 40 40 41 42 43 42 42 41 41 40 40 41 41 40 40 39 39 40 40 40 39 39 40 41 42 43 42 40 38 37 36 35 33 32 32 31 31 31 31 31 31
39 39 40 41 42 43 42 41 41 40 40 41 41 41 40 39 39 39 40 41 40 39 40 41 42 43 43 42 41 39 38 36 35 34 33 32 32 32 32 31 31 32
39 39 40 41 42 42 41 41 41 40 40 40 40 41 40 39 39 40 40 40 40 40 41 41 43 43 43 42 41 40 39 37 35 34 33 32 33 33 33 32 32 30
39 39 39 41 41 41 40 39 39 40 41 40 40 40 39 39 40 41 41 41 41 41 41 42 42 42 42 42 41 40 39 38 36 34 33 33 34 34 34 34 32 28
38 39 40 40 40 39 38 38 39 40 41 40 39 38 39 40 40 41 41 42 42 41 41 40 40 41 41 41 40 40 39 38 37 34 33 34 35 35 36 36 32 29
38 40 40 39 38 37 37 38 39 40 40 39 38 38 39 39 39 40 41 42 42 41 40 39 39 39 39 39 40 39 38 38 37 34 33 34 35 36 36 33 29 28
39 39 38 37 37 37 37 38 39 40 40 38 37 37 38 37 38 40 40 40 40 39 39 38 36 36 37 38 38 38 37 37 37 35 35 35 35 35 34 30 27 27
39 38 37 36 36 36 38 39 40 40 39 38 37 36 36 37 38 38 38 38 38 39 39 37 34 34 36 37 37 37 36 37 37 36 35 35 36 37 35 32 29 27
39 39 38 37 37 39 40 40 40 40 39 39 39 38 37 38 38 37 38 38 39 40 40 37 32 32 35 35 36 37 36 37 38 37 34 34 36 36 33 29 25 23
39 39 39 38 39 41 42 42 42 41 40 40 40 40 39 38 38 37 38 39 40 40 39 36 31 31 33 34 35 36 37 38 39 38 36 36 35 31 28 25 23 23
38 39 40 40 42 44 44 43 42 39 39 39 40 41 39 37 38 39 39 39 40 39 37 35 32 31 32 34 35 37 37 38 39 39 39 40 37 32 28 26 26 25
Wind_Direction
212 213 213 214 214 216 217 219 220 220 222 223 224 228 231 233 234 234 234 235 236 238 239 241 241 239 239 237 236 235 237 240 236 234 234 232 232 236 238 235 230 226
212 213 214 214 214 216 217 219 221 221 223 225 227 229 232 233 234 234 234 234 235 237 238 240 240 239 239 238 237 236 236 239 237 234 232 230 232 236 239 236 230 226
211 212 213 214 215 216 217 219 220 222 224 226 228 230 231 232 234 234 234 233 234 236 237 238 239 239 239 239 238 237 237 238 239 236 231 229 232 237 239 235 230 227
210 211 212 214 216 217 217 218 219 221 223 225 228 230 230 232 233 234 234 233 233 235 236 237 238 238 239 239 238 238 237 238 241 238 233 230 233 237 238 234 229 228
211 212 213 214 216 217 217 217 219 220 222 225 227 229 229 230 232 232 232 232 231 233 235 236 238 238 239 239 238 237 236 236 238 238 234 232 233 236 236 234 230 230
211 211 212 214 216 216 217 217 219 220 221 224 226 227 228 228 230 231 232 231 230 231 233 234 236 237 238 238 238 237 236 234 235 236 235 235 235 236 236 234 233 232
211 212 212 214 216 216 217 218 220 220 221 223 224 225 226 226 228 230 231 231 229 230 232 233 235 236 237 237 236 237 236 234 234 235 236 236 236 237 236 235 234 235
211 212 212 214 215 216 217 218 220 220 220 221 222 223 225 226 227 229 230 230 229 230 231 232 234 236 236 235 236 236 234 232 232 233 235 236 236 237 236 235 235 237
211 211 212 213 214 216 217 218 220 220 220 220 220 222 224 225 227 228 229 229 228 229 230 230 232 234 235 234 235 236 234 232 232 233 235 235 235 236 236 236 236 237
211 211 212 213 214 215 216 218 220 220 220 219 220 221 222 224 226 227 228 228 226 227 228 229 230 232 232 233 234 236 235 233 233 234 235 236 237 237 236 236 236 237
210 211 212 213 213 215 216 217 219 219 220 219 219 221 222 224 225 225 226 226 226 226 226 228 230 231 231 232 233 235 235 233 233 235 236 237 238 238 237 237 237 238
210 211 212 212 213 214 216 217 218 219 219 219 219 220 222 223 224 224 225 226 226 226 225 227 230 231 232 232 232 232 233 232 232 235 237 238 239 239 239 239 239 239
210 211 211 211 213 214 215 217 217 218 218 218 219 220 221 222 223 224 225 226 226 225 225 226 228 230 232 232 230 229 230 230 231 233 235 237 238 240 241 242 241 240
210 210 210 211 212 213 215 216 216 217 217 218 218 219 221 222 223 224 225 226 225 225 224 225 226 228 230 230 227 226 227 229 230 232 234 235 236 239 241 242 242 241
209 209 210 211 211 213 214 215 216 216 217 217 218 218 220 222 223 224 225 225 225 224 223 223 224 227 229 228 224 223 224 227 229 231 232 233 235 238 240 240 240 242
208 208 209 209 211 212 213 214 215 215 216 216 217 218 220 221 222 223 224 224 224 222 221 222 223 226 228 227 225 223 224 225 226 228 230 232 233 235 237 238 239 242
207 208 208 209 211 212 212 213 213 214 215 216 217 218 219 219 220 221 223 224 224 222 221 221 223 225 227 226 225 224 225 224 224 225 227 229 232 233 234 235 237 240
207 207 207 209 211 212 212 212 212 213 214 215 216 217 217 218 219 221 222 223 224 223 223 222 223 225 225 224 224 224 225 225 224 223 223 226 231 233 233 234 235 233
206 206 207 210 211 211 212 211 212 213 214 215 216 216 216 217 218 220 221 223 223 223 223 224 225 225 224 223 223 223 224 225 224 222 221 225 231 233 233 234 231 223
205 206 208 210 210 210 210 210 212 214 215 215 216 215 216 217 218 219 221 223 223 224 224 225 225 225 224 222 222 222 223 223 223 221 221 226 231 234 236 234 226 217
205 207 208 209 209 209 209 210 212 214 215 215 215 215 217 217 218 220 221 223 224 224 225 226 226 224 223 221 221 221 220 221 220 218 221 227 231 235 237 232 223 219
205 206 207 207 207 207 209 211 212 214 215 215 215 217 218 219 220 221 223 224 225 225 226 227 226 224 222 221 220 218 217 217 217 217 220 225 229 233 233 228 224 223
206 206 206 206 205 206 209 211 213 214 215 213 214 216 217 218 220 222 223 225 225 226 226 226 225 223 222 220 218 215 212 212 215 216 217 220 225 229 230 227 224 223
206 206 205 204 204 207 210 211 213 214 214 213 213 215 216 218 219 221 223 224 225 226 227 226 223 222 221 217 214 212 210 209 212 214 214 216 219 223 225 224 221 220
206 206 206 205 206 209 211 212 213 213 212 212 213 215 217 217 218 219 221 223 225 226 227 225 222 221 219 215 212 210 209 209 210 211 214 218 217 215 215 218 220 221
207 206 207 207 208 211 212 213 213 212 211 211 212 215 216 216 217 218 220 222 223 224 225 223 220 220 217 213 210 209 208 208 208 209 214 220 222 218 214 216 221 225